Regional Weather Roundup
Issued by NWS

Home | Current Version | Previous Version | Graphics & Text | Print | Product List | Glossary On
Versions: 1 2 3 4 5 6 7 8 9 10 11 12 13 14 15 16 17 18 19 20 21 22 23 24 25 26 27 28 29 30 31 32 33 34 35 36 37 38 39 40 41 42 43 44 45 46 47 48 49 50
000
ASUS43 KLSX 180059
RWRMO

WEATHER SUMMARY FOR MISSOURI
NATIONAL WEATHER SERVICE SPRINGFIELD MO
800 PM CDT WED SEP 17 2014

NOTE: "FAIR" INDICATES FEW OR NO CLOUDS BELOW 12,000 FEET WITH NO
       SIGNIFICANT WEATHER AND/OR OBSTRUCTIONS TO VISIBILITY.
       CURRENT SKY AND/OR WEATHER CONDITIONS ARE NOT AVAILABLE FOR
       CHILLICOTHE AND FARMINGTON.

MOZ001>031-035>038-043-044-053-054-180200-
...NORTHERN AND WESTERN MISSOURI...

CITY           SKY/WX    TMP DP  RH WIND       PRES   REMARKS
KANSAS CTY INT PTCLDY    69  64  84 E7        29.91R
KANSAS C DTWN  CLEAR     69  65  86 E5        29.90R
LEE`S SUMMIT   CLOUDY    69  66  90 E8        29.92R
ST JOSEPH      MOCLDY    69  64  84 E6        29.90R
KIRKSVILLE     CLOUDY    65  60  84 E6        29.97R

$$
MOZ066>068-077>081-088>096-101>105-180200-
...SOUTHWEST MISSOURI...

CITY           SKY/WX    TMP DP  RH WIND       PRES   REMARKS
SPRINGFIELD    CLEAR     66  63  90 E3        29.90R
JOPLIN         PTCLDY    69  63  81 CALM      29.87S

$$
MOZ032>034-039>042-045>050-055>058-069>072-180200-
...CENTRAL MISSOURI...

CITY           SKY/WX    TMP DP  RH WIND       PRES   REMARKS
COLUMBIA       FOG       62  61  96 NE7       29.95R VSB 1
JEFFERSON CITY CLOUDY    65  62  90 NE3       29.93R
ROLLA          CLOUDY    63  62  97 E5        29.92R FOG
SEDALIA        CLOUDY    68  65  90 E8        29.93S
OSAGE BEACH    CLOUDY    70  64  83 E6        29.92R

$$
MOZ051-052-059>065-180200-
...EAST CENTRAL MISSOURI...

CITY           SKY/WX    TMP DP  RH WIND       PRES   REMARKS
ST LOUIS INTL  CLOUDY    63  56  78 E7        29.97R
SPIRIT OF STL  CLOUDY    62  60  93 E5        29.95S
ST CHARLES     CLOUDY    60  57  89 SE7       29.96S

$$
MOZ072>076-082>087-097>100-106>115-180200-
...SOUTH CENTRAL AND SOUTHEAST MISSOURI...

CITY           SKY/WX    TMP DP  RH WIND       PRES   REMARKS
CAPE GIRARDEAU CLOUDY    64  60  87 SW3       29.95F
FARMINGTON     CLOUDY    61  57  88 CALM      29.97S
POPLAR BLUFF   CLOUDY    63  58  83 CALM      29.94S
WEST PLAINS    PTCLDY    63  60  90 CALM      29.94R

$$



USA.gov is the U.S. government's official web portal to all federal, state and local government web resources and services.